DECAYED

NOAA 16 DEB, 41136 (Decayed)

Orbit data source: Space-Track

NOAA 16 DEB, 41136 was space debris in SSO originally from a launch on Thu, 21 Sep 2000 UTC launched from the Air Force Western Test Range (AFWTR). Debris objects in space refer to the collection of defunct objects orbiting the Earth. Examples of debris include non-operational satellites, rocket bodies, and fragments generated from explosions, collisions, or faulty payload assembly.

Not visible in the next 10 days
Identifier
41136, 2000-055BT
Orbit
Decayed
Country
Flag of USUS
Related business
Manufacturer
Unknown
Mission
Decayed spacecraft
Bus & Motor
Unknown
Mass
Unknown
Launch date (UTC)
2000-09-21 (25 years ago)
Launch vehicle
Unknown
Launch site
Air Force Western Test Range (AFWTR)
Object type
Payload
Rocket body
Debris
Shape & HBR
Unknown shape, 0.1 m
Radar Cross Section
Small (<0.1 m²)

Expand to show TLE details & history
Last TLE update: 7 months ago

TLE from 7 months ago
0 NOAA 16 DEB
1 41136U 00055BT  25063.73333228  .03766181  00000-0  35023-1 0  9998
2 41136  99.0485 346.3070 0020991 136.8898 223.4004 15.63485475483995
Epoch: 2025-03-04T17:35Z
TLE epoch observation values (Epoch: 2025-03-04T17:35:59.908Z)
Latitude
-0.00004°
Longitude
-80.42512°
Altitude
391.014 km
Speed
7.67 km/s
True Right ascension
23h 05m 13s
True Declination
0° 00' 00"
Sunlit
Object was in daylight at epoch
Visualization orbit readout
Latitude
Unknown
Longitude
Unknown
Altitude
Unknown
Speed
Unknown
Apparent Right ascension
Unknown
Apparent Declination
Unknown
Sunlit
N/A
Visualization observer readout
Local Sidereal Time
08:49:39
Azimuth
Unknown
Elevation
Unknown
Doppler factor
Unknown
Orbital elements
Apogee altitude
388.76 km
Perigee altitude
360.411 km
Semi-major axis
6,752.722 km
Eccentricity
0.0021
Inclination
99.0485°
RAAN
346.307°
Arg. of periapsis
136.8898°
True anomaly
223.23544°
Mean anomaly
223.4004°
Eccentric anomaly
223.31789°
Mean motion
3.91133 °/min
Orbital period
92.04 mins
BSTAR
0.035023
Loading maneuver chart data...
Computing Atmospheric mass density...
Loading historical data...
Loading historical data...
Loading historical data...
Loading historical data...
Loading historical data...
Loading historical data...
Loading historical data...

Documentation

Showing up to 5 results
|